Flag for U.S.A. Weather past 2 weeks in Fairbanks, Alaska, U.S.A.

Now
2 °F

Clear.


Feels Like: -9 °F
Forecast: -10 / -1 °F
Wind: 6 mph from Southwest

Location: Wainwright U. S. Army Airfield

Current Time: Dec 21, 2014 at 8:01:05 AM

Latest Report: Dec 21, 2014 at 6:56 AM


Visibility: 10 mi

Pressure: 29.18 "Hg

Humidity: 76%

Dew point: -4 °F

Location of FairbanksLocation

Historic Weather in Fairbanks — Graph

°F

Fairbanks temperature yesterday

Maximum temperature yesterday: 1 °F (at 10:56 PM)
Minimum temperature yesterday: -11 °F (at 4:56 PM)
Average temperature yesterday: -8 °F

Past Weeks' High & Low Weather Summary

 TemperatureHumidityPressure
High21 °F (Dec 18, 1:56 AM)93% (Dec 16, 6:55 AM)30.39 "Hg (Dec 16, 6:55 AM)
Low-11 °F (Dec 20, 4:56 PM)52% (Dec 11, 4:55 PM)29.09 "Hg (Dec 8, 10:56 PM)
Average8 °F76%29.42 "Hg
* Reported Dec 6 6:56 AM — Dec 21 6:56 AM, Fairbanks, Weather by CustomWeather, © 2014

Note: Actual official high and low records may vary slightly from our data, if they occured in-between our weather recording intervals... More about our weather records

Advertising

Fairbanks weather history for previous 24 hours

 ConditionsComfort  
Time TempWeatherWind HumidityBarometerVisibility
6:56 AM
Dec 21
2 °FClear.6 mph76%29.18 "Hg10 mi
5:56 AM3 °FClear.No wind76%29.17 "Hg10 mi
4:56 AM3 °FClear.No wind76%29.15 "Hg10 mi
3:56 AM1 °FClear.No wind79%29.14 "Hg10 mi
2:56 AM2 °FClear.3 mph76%29.13 "Hg10 mi
1:56 AM-1 °FClear.No wind75%29.14 "Hg10 mi
12:56 AM0 °FOvercast.No wind79%29.12 "Hg10 mi
11:56 PM
Dec 20
0 °FPassing clouds.No wind75%29.11 "Hg10 mi
10:56 PM1 °FPassing clouds.No wind75%29.11 "Hg10 mi
9:56 PM-3 °FPassing clouds.No wind75%29.10 "Hg10 mi
8:56 PM-8 °FClear.No wind74%29.09 "Hg10 mi
7:56 PM-9 °FClear.No wind70%29.11 "Hg10 mi
6:56 PM-11 °FClear.No wind74%29.12 "Hg9 mi
5:56 PM-11 °FClear.No wind74%29.13 "Hg10 mi
4:56 PM-11 °FClear.No wind78%29.13 "Hg10 mi
3:56 PMN/AClear.No windN/A29.14 "Hg10 mi
2:56 PM-8 °FClear.No wind74%29.14 "Hg10 mi
1:56 PM-9 °FSunny.No wind74%29.15 "Hg10 mi
12:56 PM-9 °FSunny.No wind70%29.18 "Hg10 mi
11:56 AMN/ASunny.No windN/A29.18 "Hg10 mi
10:56 AMN/AClear.No windN/A29.19 "Hg10 mi
9:56 AM-9 °FClear.No wind70%29.19 "Hg10 mi
8:56 AM-9 °FClear.No wind74%29.20 "Hg10 mi
Weather by CustomWeather, © 2014

See weather overviewHow to use our weather pages